This is the latest recevied weather packets stored in our database for station/object HS5MOA-13. If no packets are shown the sender has not sent any weather packets the latest 10 day(s).
| Time | Temp. | Humidity | Pressure | Rain* | Wind** | Luminosity | Snow |
|---|---|---|---|---|---|---|---|
| 1788585089 | 35.56° C | 5% | 979 hPa | 0 mm | - | - | - |
| 1788584477 | 35.56° C | 5% | 979.1 hPa | 0 mm | - | - | - |
| 1788583865 | 35.56° C | 5% | 979.3 hPa | 0 mm | - | - | - |
| 1788583254 | 35° C | 5% | 979.6 hPa | 0 mm | - | - | - |
| 1788582642 | 35° C | 5% | 979.6 hPa | 0 mm | - | - | - |
| 1788582029 | 34.44° C | 5% | 979.7 hPa | 0 mm | - | - | - |
| 1788581417 | 35° C | 5% | 979.8 hPa | 0 mm | - | - | - |
| 1788580806 | 35° C | 5% | 979.9 hPa | 0 mm | - | - | - |
| 1788580194 | 35° C | 5% | 979.9 hPa | 0 mm | - | - | - |
| 1788579583 | 34.44° C | 5% | 979.9 hPa | 0 mm | - | - | - |
| 1788578971 | 33.89° C | 5% | 980 hPa | 0 mm | - | - | - |
| 1788578359 | 33.33° C | 5% | 980.1 hPa | 0 mm | - | - | - |
| 1788577748 | 32.78° C | 5% | 980.2 hPa | 0 mm | - | - | - |
| 1788577136 | 32.22° C | 5% | 980.2 hPa | 0 mm | - | - | - |
| 1788576525 | 31.67° C | 5% | 980.3 hPa | 0 mm | - | - | - |
| 1788575913 | 31.67° C | 5% | 980.3 hPa | 0 mm | - | - | - |
| 1788575301 | 31.11° C | 5% | 980.4 hPa | 0 mm | - | - | - |
| 1788574690 | 31.11° C | 5% | 980.4 hPa | 0 mm | - | - | - |
| 1788574078 | 30.56° C | 5% | 980.5 hPa | 0 mm | - | - | - |
| 1788573467 | 30.56° C | 5% | 980.5 hPa | 0 mm | - | - | - |
| 1788572855 | 30.56° C | 5% | 980.4 hPa | 0 mm | - | - | - |
| 1788572243 | 30° C | 5% | 980.3 hPa | 0 mm | - | - | - |
| 1788571632 | 29.44° C | 5% | 980.1 hPa | 0 mm | - | - | - |
| 1788571021 | 29.44° C | 5% | 979.9 hPa | 0 mm | - | - | - |
| 1788570409 | 29.44° C | 5% | 979.8 hPa | 0 mm | - | - | - |
* Rain latest hour (hover to see other rain measurements)
** Current wind speed in m/s (hover to see current wind gust speed)